PROFILE

 METAR AND TAF INFORMATION
ADDS - METARS form results

(0226 UTC 20 February 2020)
http://aviationweather.gov/metar/data/
 
LFML 200200Z AUTO 32006KT CAVOK 09/02 Q1024 NOSIG
LFML 200130Z AUTO 02008KT 350V050 CAVOK 09/01 Q1024
TAF LFML 192000Z 1921/2103 32015G30KT CAVOK TX16/2012Z TN05/2006Z BECMG 2002/2004 34010KT BECMG 2011/2012 VRB03KT TEMPO 2014/2018 25010KT 

 AIRPORT MAP

 RUNWAY INFORMATION
Runway 13L Runway length 11483 ft Runway width 148 ft
Runway elevation 8 ft Runway displaced threshold 1116 ft Runway heading 134
Runway 31R Runway length 11483 ft Runway width 148 ft
Runway elevation 53 ft Runway displaced threshold 2165 ft Runway heading 314
Runway 13R Runway length 7776 ft Runway width 148 ft
Runway elevation 8 ft Runway displaced threshold 0 ft Runway heading 134
Runway 31L Runway length 7776 ft Runway width 148 ft
Runway elevation 61 ft Runway displaced threshold 345 ft Runway heading 314

 AIRPORT FREQUENCIES
Type APP Name APP/RADAR Frequency 120.2 MHZ
Type ATIS Name ATIS Frequency 125.35 MHZ
Type GND Name GND Frequency 121.9 MHZ
Type INFO Name INFO Frequency 118.85 MHZ
Type PFLT Name PERFLIGHT Frequency 121.725 MHZ
Type TWR Name TWR Frequency 118.375 MHZ

 AIRPORT NEAR NAVIGATION AIDS
Type VOR-DME Name Marseille/Provence Frequency 108800 KHZ